GW2622 Weather Reports


time (UTC)temp
F
wind
direction
speed
knots
gust
knots
rain 1hr
in
rain 24hr
in
rain mn
in
humidity
%
barometer
mb
20260902023521 81 164 2.6 4.3 0.00 0.00 0.00 74 1013.1
20260902023015 82 188 1.7 2.6 0.00 0.00 0.00 74 1013.2
20260902022510 82 179 2.6 2.6 0.00 0.00 0.00 74 1012.9
20260902022005 82 165 1.7 2.6 0.00 0.00 0.00 73 1013.0
20260902021500 82 198 1.7 1.7 0.00 0.00 0.00 72 1013.0
20260902020955 83 200 1.7 2.6 0.00 0.00 0.00 71 1012.7
20260902020451 83 199 2.6 4.3 0.00 0.00 0.00 71 1013.0
20260902015947 83 172 2.6 4.3 0.00 0.00 0.00 70 1012.8
20260902015443 83 182 2.6 2.6 0.00 0.00 0.00 71 1012.6
20260902014938 84 191 1.7 2.6 0.00 0.00 0.00 70 1012.5
20260902014435 84 195 1.7 2.6 0.00 0.00 0.00 70 1012.6
20260902013933 84 191 2.6 2.6 0.00 0.00 0.00 70 1012.5
20260902013429 84 195 1.7 1.7 0.00 0.00 0.00 69 1012.6
20260902012924 84 186 2.6 2.6 0.00 0.00 0.00 69 1012.4
20260902012420 84 185 2.6 2.6 0.00 0.00 0.00 69 1012.3
20260902011916 84 189 1.7 2.6 0.00 0.00 0.00 69 1012.6
20260902011410 85 192 1.7 2.6 0.00 0.00 0.00 69 1012.5
20260902010910 85 231 1.7 2.6 0.00 0.00 0.00 69 1012.3
20260902010405 85 257 1.7 4.3 0.00 0.00 0.00 69 1012.2
20260902005904 85 144 1.7 2.6 0.00 0.00 0.00 69 1012.4
20260902005358 86 227 0.9 2.6 0.00 0.00 0.00 68 1012.2
20260902004854 86 165 2.6 4.3 0.00 0.00 0.00 67 1012.4
20260902004353 86 258 0.9 1.7 0.00 0.00 0.00 68 1012.3
20260902003849 87 201 1.7 1.7 0.00 0.00 0.00 66 1012.4
20260902003344 87 244 1.7 5.2 0.00 0.00 0.00 66 1012.4
20260902002840 88 255 1.7 1.7 0.00 0.00 0.00 65 1012.4
20260902002339 88 198 1.7 2.6 0.00 0.00 0.00 64 1012.4
20260902001835 89 160 2.6 4.3 0.00 0.00 0.00 63 1012.4
20260902001330 89 192 2.6 4.3 0.00 0.00 0.00 62 1012.5
20260902000824 89 258 0.9 2.6 0.00 0.00 0.00 62 1012.7
20260902000324 90 243 2.6 4.3 0.00 0.00 0.00 61 1012.6
20260901235819 90 236 1.7 5.2 0.00 0.00 0.00 61 1012.5
20260901235314 91 192 2.6 2.6 0.00 0.00 0.00 61 1012.6
20260901234813 91 207 3.5 4.3 0.00 0.00 0.00 60 1012.5
20260901234308 92 247 1.7 1.7 0.00 0.00 0.00 60 1012.6
20260901233803 92 222 3.5 6.1 0.00 0.00 0.00 59 1012.6
20260901233253 92 190 1.7 4.3 0.00 0.00 0.00 59 1012.5
20260901232748 93 250 1.7 2.6 0.00 0.00 0.00 59 1012.5
20260901232238 93 215 1.7 4.3 0.00 0.00 0.00 59 1012.4
20260901231734 93 219 2.6 5.2 0.00 0.00 0.00 58 1012.4
20260901231230 94 171 2.6 4.3 0.00 0.00 0.00 57 1012.5
20260901230725 94 176 3.5 4.3 0.00 0.00 0.00 57 1012.4
20260901230219 95 190 2.6 5.2 0.00 0.00 0.00 57 1012.6
20260901225715 95 229 2.6 5.2 0.00 0.00 0.00 56 1012.4
20260901225209 95 249 1.7 2.6 0.00 0.00 0.00 56 1012.7
20260901224705 95 173 3.5 4.3 0.00 0.00 0.00 55 1012.6
20260901224201 95 217 3.5 5.2 0.00 0.00 0.00 55 1012.6
20260901223657 95 264 2.6 4.3 0.00 0.00 0.00 56 1012.7
20260901223151 96 222 4.3 5.2 0.00 0.00 0.00 54 1012.6
20260901222648 96 213 2.6 5.2 0.00 0.00 0.00 55 1012.7
20260901222144 96 233 5.2 5.2 0.00 0.00 0.00 53 1012.7
20260901221639 96 228 5.2 6.1 0.00 0.00 0.00 52 1012.7
20260901221135 96 239 4.3 6.1 0.00 0.00 0.00 52 1012.5
20260901220634 96 216 4.3 6.1 0.00 0.00 0.00 52 1012.8
20260901220134 96 207 4.3 6.1 0.00 0.00 0.00 51 1012.8
20260901215632 96 216 3.5 7.0 0.00 0.00 0.00 51 1012.6
20260901215126 97 245 3.5 5.2 0.00 0.00 0.00 52 1012.8
20260901214624 96 249 3.5 7.0 0.00 0.00 0.00 50 1012.9
20260901214119 97 233 7.8 8.7 0.00 0.00 0.00 49 1012.8
20260901213613 96 207 4.3 7.0 0.00 0.00 0.00 51 1012.8
20260901213108 97 212 3.5 7.0 0.00 0.00 0.00 50 1012.8
20260901212608 97 210 4.3 6.1 0.00 0.00 0.00 49 1012.8
20260901212104 96 167 5.2 7.0 0.00 0.00 0.00 49 1012.8
20260901211558 96 212 6.1 9.6 0.00 0.00 0.00 49 1012.7
20260901211055 96 208 6.1 7.8 0.00 0.00 0.00 49 1012.7
20260901210550 97 192 6.1 8.7 0.00 0.00 0.00 50 1012.9
20260901210046 97 296 3.5 5.2 0.00 0.00 0.00 50 1012.9
20260901205541 97 217 5.2 8.7 0.00 0.00 0.00 49 1013.1
20260901205036 96 230 4.3 7.8 0.00 0.00 0.00 50 1012.9
20260901204532 97 227 5.2 9.6 0.00 0.00 0.00 49 1013.0
20260901204026 96 207 6.1 11.3 0.00 0.00 0.00 50 1013.2
20260901203521 96 216 7.0 8.7 0.00 0.00 0.00 50 1013.1
20260901203017 97 210 3.5 5.2 0.00 0.00 0.00 50 1013.2
20260901202511 96 232 4.3 7.0 0.00 0.00 0.00 49 1013.3
20260901202007 96 210 5.2 9.6 0.00 0.00 0.00 50 1013.4
20260901201502 96 236 3.5 8.7 0.00 0.00 0.00 52 1013.3
20260901201002 96 206 6.1 7.8 0.00 0.00 0.00 50 1013.5
20260901200451 96 242 6.1 8.7 0.00 0.00 0.00 49 1013.4
20260901195950 96 203 5.2 7.8 0.00 0.00 0.00 51 1013.5
20260901195448 96 226 6.1 7.8 0.00 0.00 0.00 52 1013.5
20260901194938 96 232 2.6 6.1 0.00 0.00 0.00 52 1013.5
20260901194432 96 216 4.3 6.1 0.00 0.00 0.00 51 1013.7
20260901193929 95 264 5.2 9.6 0.00 0.00 0.00 50 1013.9
20260901193427 96 172 3.5 8.7 0.00 0.00 0.00 49 1013.9
20260901192922 95 229 4.3 8.7 0.00 0.00 0.00 49 1014.1
20260901192417 96 236 7.0 8.7 0.00 0.00 0.00 51 1014.1
20260901191913 96 200 5.2 7.0 0.00 0.00 0.00 51 1014.1
20260901191408 96 193 6.1 8.7 0.00 0.00 0.00 53 1014.2
20260901190904 96 246 4.3 7.8 0.00 0.00 0.00 50 1014.2
20260901190359 96 181 5.2 7.0 0.00 0.00 0.00 50 1014.2
20260901185857 96 212 5.2 7.8 0.00 0.00 0.00 53 1014.4
20260901185356 96 284 2.6 4.3 0.00 0.00 0.00 52 1014.0
20260901184852 95 243 2.6 6.1 0.00 0.00 0.00 51 1014.4
20260901184347 96 209 5.2 6.1 0.00 0.00 0.00 51 1014.3
20260901183842 95 260 2.6 4.3 0.00 0.00 0.00 52 1014.5
20260901183341 94 219 4.3 7.0 0.00 0.00 0.00 55 1014.4
20260901182837 94 216 5.2 6.1 0.00 0.00 0.00 53 1014.6
20260901182332 94 207 3.5 6.1 0.00 0.00 0.00 54 1014.6
20260901181827 94 234 5.2 6.1 0.00 0.00 0.00 53 1014.6
20260901181321 94 265 4.3 5.2 0.00 0.00 0.00 53 1014.8
20260901180815 95 274 1.7 4.3 0.00 0.00 0.00 54 1014.8
20260901180314 94 254 1.7 5.2 0.00 0.00 0.00 56 1014.8
20260901175814 94 224 4.3 6.1 0.00 0.00 0.00 54 1014.8
20260901175308 93 224 2.6 4.3 0.00 0.00 0.00 55 1014.8
20260901174803 93 247 2.6 6.1 0.00 0.00 0.00 55 1014.9
20260901174259 93 196 7.0 7.8 0.00 0.00 0.00 55 1014.9
20260901173754 92 208 2.6 5.2 0.00 0.00 0.00 57 1014.9
20260901173249 93 218 2.6 5.2 0.00 0.00 0.00 56 1014.9
20260901172746 92 273 2.6 5.2 0.00 0.00 0.00 56 1014.9
20260901172244 93 215 4.3 6.1 0.00 0.00 0.00 55 1014.8
20260901171743 91 230 3.5 4.3 0.00 0.00 0.00 56 1015.0
20260901171242 91 264 1.7 7.8 0.00 0.00 0.00 55 1015.0
20260901170741 91 246 3.5 6.1 0.00 0.00 0.00 57 1015.0
20260901170236 92 208 5.2 7.0 0.00 0.00 0.00 56 1015.0
20260901165734 91 215 3.5 6.1 0.00 0.00 0.00 58 1015.1
20260901165229 91 224 3.5 6.1 0.00 0.00 0.00 61 1015.1
20260901164726 91 256 4.3 7.0 0.00 0.00 0.00 58 1015.2
20260901164221 91 214 3.5 5.2 0.00 0.00 0.00 59 1015.1
20260901163716 90 258 2.6 6.1 0.00 0.00 0.00 61 1015.0
20260901163215 90 203 3.5 4.3 0.00 0.00 0.00 62 1015.1
20260901162710 90 213 3.5 5.2 0.00 0.00 0.00 62 1015.1
20260901162210 89 265 4.3 6.1 0.00 0.00 0.00 62 1015.2
20260901161708 89 211 6.1 7.0 0.00 0.00 0.00 62 1015.0
20260901161203 88 278 2.6 6.1 0.00 0.00 0.00 65 1015.2
20260901160700 88 211 3.5 6.1 0.00 0.00 0.00 65 1015.1
20260901160155 88 213 2.6 7.0 0.00 0.00 0.00 66 1015.0
20260901155653 87 212 1.7 4.3 0.00 0.00 0.00 68 1014.9
20260901155149 87 215 3.5 5.2 0.00 0.00 0.00 66 1015.0
20260901154644 87 205 4.3 7.0 0.00 0.00 0.00 66 1015.1
20260901154138 86 226 2.6 6.1 0.00 0.00 0.00 69 1014.9
20260901153634 86 226 5.2 6.1 0.00 0.00 0.00 66 1014.8
20260901153127 86 199 3.5 5.2 0.00 0.00 0.00 69 1014.9
20260901152623 86 222 5.2 7.0 0.00 0.00 0.00 68 1015.1
20260901152121 85 216 2.6 7.0 0.00 0.00 0.00 70 1015.0
20260901151617 85 210 3.5 6.1 0.00 0.00 0.00 72 1015.2
20260901151116 84 204 3.5 7.0 0.00 0.00 0.00 72 1015.1
20260901150615 84 181 4.3 8.7 0.00 0.00 0.00 74 1015.1
20260901150113 84 185 4.3 7.0 0.00 0.00 0.00 74 1015.2
20260901145607 84 226 4.3 6.1 0.00 0.00 0.00 74 1015.1
20260901145106 83 220 3.5 6.1 0.00 0.00 0.00 75 1015.0
20260901144602 83 229 4.3 5.2 0.00 0.00 0.00 75 1015.1
20260901144057 83 214 1.7 2.6 0.00 0.00 0.00 77 1015.1
20260901143552 82 198 2.6 5.2 0.00 0.00 0.00 77 1015.2
20260901143049 82 204 3.5 5.2 0.00 0.00 0.00 79 1015.1
20260901142544 81 198 4.3 6.1 0.00 0.00 0.00 78 1015.0
20260901142043 81 230 1.7 4.3 0.00 0.00 0.00 80 1014.9
20260901141538 80 215 4.3 5.2 0.00 0.00 0.00 81 1015.1
20260901141033 80 228 3.5 6.1 0.00 0.00 0.00 81 1015.0
20260901140531 80 172 2.6 4.3 0.00 0.00 0.00 81 1015.1
20260901140021 80 245 1.7 4.3 0.00 0.00 0.00 82 1015.0
20260901135520 79 212 3.5 4.3 0.00 0.00 0.00 83 1015.2
20260901135016 79 213 3.5 5.2 0.00 0.00 0.00 85 1015.1
20260901134512 78 253 1.7 2.6 0.00 0.00 0.00 85 1015.0
20260901134006 78 186 2.6 4.3 0.00 0.00 0.00 86 1015.1
20260901133505 78 239 1.7 4.3 0.00 0.00 0.00 86 1015.1
20260901133003 78 236 1.7 2.6 0.00 0.00 0.00 88 1015.0
20260901132458 77 188 1.7 2.6 0.00 0.00 0.00 88 1015.2
20260901131956 77 248 0.9 2.6 0.00 0.00 0.00 89 1015.1
20260901131451 77 189 2.6 2.6 0.00 0.00 0.00 89 1015.1
20260901130947 77 221 1.7 2.6 0.00 0.00 0.00 89 1015.2
20260901130441 77 249 2.6 4.3 0.00 0.00 0.00 88 1015.1
20260901125939 77 263 0.9 2.6 0.00 0.00 0.00 91 1015.3
20260901125438 77 190 1.7 2.6 0.00 0.00 0.00 92 1015.2
20260901124933 77 195 2.6 2.6 0.00 0.00 0.00 92 1015.2
20260901124428 77 195 2.6 2.6 0.00 0.00 0.00 92 1015.2
20260901123923 76 235 1.7 1.7 0.00 0.00 0.00 93 1015.2
20260901123418 76 203 1.7 1.7 0.00 0.00 0.00 93 1015.0
20260901122916 76 261 0.9 0.9 0.00 0.00 0.00 93 1015.1
20260901122411 76 204 0.9 1.7 0.00 0.00 0.00 94 1014.9
20260901121910 75 269 0.0 0.9 0.00 0.00 0.00 94 1014.9
20260901121405 75 233 0.9 2.6 0.00 0.00 0.00 94 1014.9
20260901120901 75 247 0.9 1.7 0.00 0.00 0.00 95 1015.0
20260901120355 75 265 0.0 1.7 0.00 0.00 0.00 96 1015.0
20260901115850 74 241 0.9 0.9 0.00 0.00 0.00 98 1015.1
20260901115345 74 213 1.7 1.7 0.00 0.00 0.00 98 1015.0
20260901114843 74 189 1.7 1.7 0.00 0.00 0.00 99 1014.7
20260901114338 74 232 0.9 1.7 0.00 0.00 0.00 99 1014.7
20260901113836 74 188 0.9 2.6 0.00 0.00 0.00 99 1014.7
20260901113335 74 185 1.7 2.6 0.00 0.00 0.00 99 1014.6
20260901112831 75 189 2.6 2.6 0.00 0.00 0.00 99 1014.8
20260901112330 75 178 2.6 2.6 0.00 0.00 0.00 99 1014.7
20260901111825 75 189 1.7 2.6 0.00 0.00 0.00 99 1014.6
20260901111324 75 181 1.7 2.6 0.00 0.00 0.00 99 1014.6
20260901110823 74 258 0.0 0.0 0.00 0.00 0.00 99 1014.8
20260901110319 75 249 0.9 0.9 0.00 0.00 0.00 99 1014.7
20260901105815 75 264 0.9 0.9 0.00 0.00 0.00 99 1014.8
20260901105314 75 269 0.0 1.7 0.00 0.00 0.00 99 1014.6
20260901104811 74 204 0.9 1.7 0.00 0.00 0.00 99 1014.5
20260901104306 74 186 1.7 1.7 0.00 0.00 0.00 99 1014.5
20260901103801 74 245 0.9 1.7 0.00 0.00 0.00 99 1014.6
20260901103255 75 201 0.9 1.7 0.00 0.00 0.00 99 1014.7
20260901102750 75 187 1.7 2.6 0.00 0.00 0.00 99 1014.7
20260901102250 75 205 1.7 2.6 0.00 0.00 0.00 99 1014.7
20260901101746 74 252 1.7 1.7 0.00 0.00 0.00 99 1014.7
20260901101245 74 271 0.0 0.9 0.00 0.00 0.00 99 1014.6
20260901100745 74 297 0.0 0.0 0.00 0.00 0.00 99 1014.7
20260901100240 74 297 0.0 0.0 0.00 0.00 0.00 99 1014.5
20260901095738 74 297 0.0 0.0 0.00 0.00 0.00 99 1014.5
20260901095236 74 297 0.0 0.0 0.00 0.00 0.00 99 1014.5
20260901094731 74 297 0.0 0.0 0.00 0.00 0.00 99 1014.5
20260901094226 75 297 0.0 0.0 0.00 0.00 0.00 99 1014.4
20260901093721 75 305 0.0 0.0 0.00 0.00 0.00 99 1014.6
20260901093220 74 335 0.9 0.9 0.00 0.00 0.00 99 1014.4
20260901092716 75 32 0.9 0.9 0.00 0.00 0.00 99 1014.4
20260901092212 75 346 0.0 0.9 0.00 0.00 0.00 99 1014.4
20260901091707 74 310 0.0 0.9 0.00 0.00 0.00 99 1014.3
20260901091202 74 330 0.0 1.7 0.00 0.00 0.00 99 1014.6
20260901090656 74 319 0.0 1.7 0.00 0.00 0.00 99 1014.6
20260901090152 74 323 0.0 0.9 0.00 0.00 0.00 99 1014.8
20260901085648 74 327 0.0 0.9 0.00 0.00 0.00 99 1014.6
20260901085143 74 326 0.0 0.9 0.00 0.00 0.00 99 1014.6
20260901084639 74 281 0.0 0.0 0.00 0.00 0.00 99 1014.6
20260901084135 74 281 0.0 0.9 0.00 0.00 0.00 99 1014.5
20260901083630 74 281 0.0 0.0 0.00 0.00 0.00 99 1014.5
20260901083128 75 281 0.0 0.0 0.00 0.00 0.00 99 1014.7
20260901082623 75 281 0.0 0.0 0.00 0.00 0.00 99 1014.6
20260901082118 75 281 0.0 0.0 0.00 0.00 0.00 99 1014.4
20260901081614 75 281 0.0 0.0 0.00 0.00 0.00 99 1014.6
20260901081114 75 280 0.0 0.0 0.00 0.00 0.00 99 1014.4
20260901080608 75 280 0.0 0.0 0.00 0.00 0.00 99 1014.4
20260901080107 76 269 0.0 0.0 0.00 0.00 0.00 99 1014.5
20260901075603 76 226 0.0 0.0 0.00 0.00 0.00 99 1014.4
20260901075102 76 226 0.9 0.9 0.00 0.00 0.00 99 1014.3
20260901074601 76 225 0.9 1.7 0.00 0.00 0.00 99 1014.4
20260901074057 76 225 1.7 2.6 0.00 0.00 0.00 99 1014.5
20260901073554 76 237 1.7 1.7 0.00 0.00 0.00 99 1014.5
20260901073053 76 254 0.0 0.0 0.00 0.00 0.00 99 1014.5
20260901072549 76 254 0.0 0.0 0.00 0.00 0.00 99 1014.5
20260901072043 76 271 0.0 0.0 0.00 0.00 0.00 99 1014.8
20260901071538 76 271 0.0 0.0 0.00 0.00 0.00 99 1014.8
20260901071036 76 271 0.0 0.0 0.00 0.00 0.00 99 1014.6
20260901070532 76 271 0.0 0.0 0.00 0.00 0.00 99 1014.6
20260901070027 76 271 0.0 0.0 0.00 0.00 0.00 99 1014.6
20260901065521 76 272 0.0 0.0 0.00 0.00 0.00 99 1014.7
20260901065015 76 272 0.0 0.0 0.00 0.00 0.00 99 1014.9
20260901064507 76 272 0.0 0.0 0.00 0.00 0.00 99 1014.7
20260901064004 76 272 0.0 0.0 0.00 0.00 0.00 99 1015.1
20260901063500 77 272 0.0 0.0 0.00 0.00 0.00 98 1015.0
20260901062955 77 272 0.0 0.0 0.00 0.00 0.00 98 1015.0
20260901062451 77 272 0.0 0.0 0.00 0.00 0.00 98 1015.0
20260901061947 77 272 0.0 0.0 0.00 0.00 0.00 98 1015.1
20260901061443 77 272 0.0 0.0 0.00 0.00 0.00 98 1015.0
20260901060942 77 272 0.0 0.0 0.00 0.00 0.00 97 1014.9
20260901060437 78 272 0.0 0.0 0.00 0.00 0.00 97 1014.8
20260901055932 78 272 0.0 0.0 0.00 0.00 0.00 97 1015.0
20260901055429 77 272 0.0 0.0 0.00 0.00 0.00 97 1014.7
20260901054925 77 272 0.0 0.0 0.00 0.00 0.00 98 1014.8
20260901054422 77 272 0.0 0.0 0.00 0.00 0.00 98 1014.8
20260901053918 77 272 0.0 0.0 0.00 0.00 0.00 98 1014.7
20260901053413 77 272 0.0 0.0 0.00 0.00 0.00 98 1014.8
20260901052908 77 272 0.0 0.0 0.00 0.00 0.00 98 1014.8
20260901052403 78 272 0.0 0.0 0.00 0.00 0.00 98 1014.8
20260901051902 78 272 0.0 0.0 0.00 0.00 0.00 98 1014.9
20260901051357 78 272 0.0 0.0 0.00 0.00 0.00 98 1014.7
20260901050852 77 272 0.0 0.0 0.00 0.00 0.00 98 1014.6
20260901050348 78 272 0.0 0.0 0.00 0.00 0.00 98 1014.6
20260901045843 77 272 0.0 0.0 0.00 0.00 0.00 98 1014.5
20260901045342 77 272 0.0 0.0 0.00 0.00 0.00 98 1014.6
20260901044838 78 272 0.0 0.0 0.00 0.00 0.00 98 1014.6
20260901044334 78 272 0.0 0.0 0.00 0.00 0.00 98 1014.5
20260901043829 78 273 0.0 0.0 0.00 0.00 0.00 98 1014.4
20260901043325 78 273 0.0 0.0 0.00 0.00 0.00 97 1014.4
20260901042824 78 272 0.0 0.0 0.00 0.00 0.00 97 1014.5
20260901042319 78 273 0.0 0.0 0.00 0.00 0.00 96 1014.4
20260901041815 78 272 0.0 0.0 0.00 0.00 0.00 96 1014.3
20260901041310 79 272 0.0 0.0 0.00 0.00 0.00 95 1014.1
20260901040804 79 273 0.0 0.0 0.00 0.00 0.00 95 1014.1
20260901040303 79 273 0.0 0.0 0.00 0.00 0.00 97 1014.1
20260901035803 78 273 0.0 0.0 0.00 0.00 0.00 97 1014.0
20260901035305 79 273 0.0 0.0 0.00 0.00 0.00 96 1014.2
20260901034801 78 273 0.0 0.0 0.00 0.00 0.00 95 1014.0
20260901034256 79 272 0.0 0.0 0.00 0.00 0.00 95 1014.2
20260901033755 79 272 0.0 0.0 0.00 0.00 0.00 95 1014.1
20260901033255 79 273 0.0 0.0 0.00 0.00 0.00 95 1014.2
20260901032753 79 273 0.0 0.0 0.00 0.00 0.00 95 1014.2
20260901032248 79 272 0.0 0.0 0.00 0.00 0.00 94 1014.1
20260901031743 79 272 0.0 0.0 0.00 0.00 0.00 94 1014.1
20260901031239 80 272 0.0 0.0 0.00 0.00 0.00 93 1014.3
20260901030733 80 272 0.0 0.0 0.00 0.00 0.00 92 1014.3
20260901030228 81 272 0.0 0.0 0.00 0.00 0.00 91 1014.0
20260901025722 81 272 0.0 0.0 0.00 0.00 0.00 90 1014.1
20260901025217 81 272 0.0 0.0 0.00 0.00 0.00 90 1014.1
20260901024712 81 275 0.0 0.0 0.00 0.00 0.00 90 1014.2
20260901024211 82 275 0.0 0.0 0.00 0.00 0.00 90 1014.1
20260901023709 82 275 0.0 0.0 0.00 0.00 0.00 89 1014.3